Change the Weather History Date:

Monday, August 19, 2013

  Actual Average (KLOZ) Record (KLOZ)
Temperature  
Mean Temperature 74 °F 75 °F  
Max Temperature 81 °F 86 °F 96 °F (2007)
Min Temperature 67 °F 65 °F 54 °F (1982)
Degree Days  
Heating Degree Days 0 0  
Month to date heating degree days 0  
Since 1 June heating degree days 9  
Since 1 July heating degree days 0  
Cooling Degree Days 8 10  
Month to date cooling degree days 205  
Growing Degree Days 24 (Base 50)    
Moisture  
Dew Point 67 °F    
Average Humidity 87    
Maximum Humidity 99    
Minimum Humidity 61    
Precipitation  
Precipitation 0.01 in 0.12 in 2.02 in (1999)
Month to date precipitation 2.40  
Sea Level Pressure  
Sea Level Pressure 30.15 in    
Wind  
Wind Speed 1 mph (NW)    
Max Wind Speed 7 mph    
Max Gust Speed -    
Visibility 10 miles    
Events Rain    
T = Trace of Precipitation, MM = Missing Value Source: NWS Daily Summary

Daily Weather History Graph

Daily Weather History Graph

Search for Another Location

Airport or City:

Trip Planner

Search our weather history database for the weather conditions in past years. The results will help you decide how hot, cold, wet, or windy it might be!

Date:

Astronomy

Aug. 19, 2013 Rise Set
Actual Time 5:55 AM CDT 7:20 PM CDT
Civil Twilight 5:28 AM CDT 7:47 PM CDT
Nautical Twilight 4:56 AM CDT 8:20 PM CDT
Astronomical Twilight 4:21 AM CDT 8:54 PM CDT
Moon 6:10 PM CDT (8/19) 4:14 AM CDT (8/19)
Length of Visible Light 14h 18m
Length of Day
13h 24m
Waxing Gibbous, 97% of the Moon is Illuminated
Aug 19
Waxing Gibbous
Aug 20
Full
Aug 28
Last Quarter
Sep 5
New
Sep 12
First Quarter

Hourly Weather History & Observations

Time (CDT) Temp. Heat Index Dew Point Humidity Pressure Visibility Wind Dir Wind Speed Gust Speed Precip Events Conditions
12:15 AM 68.5 °F - 67.1 °F 95% 30.18 in 10.0 mi Calm Calm - N/A   Overcast
12:35 AM 68.7 °F - 66.6 °F 93% 30.17 in 10.0 mi Calm Calm - N/A   Overcast
12:55 AM 68.4 °F - 66.9 °F 95% 30.17 in 10.0 mi Calm Calm - N/A   Overcast
1:15 AM 68.0 °F - 67.3 °F 98% 30.17 in 10.0 mi Calm Calm - N/A   Overcast
1:35 AM 68.2 °F - 67.3 °F 97% 30.17 in 10.0 mi Calm Calm - N/A   Overcast
1:55 AM 68.0 °F - 67.3 °F 98% 30.16 in 10.0 mi Calm Calm - N/A   Overcast
2:15 AM 68.2 °F - 67.5 °F 98% 30.17 in 10.0 mi Calm Calm - N/A   Overcast
2:35 AM 68.0 °F - 67.5 °F 98% 30.16 in 10.0 mi Calm Calm - N/A   Overcast
2:55 AM 67.8 °F - 67.3 °F 98% 30.16 in 10.0 mi Calm Calm - N/A   Overcast
3:15 AM 67.6 °F - 67.1 °F 98% 30.17 in 10.0 mi Calm Calm - N/A   Overcast
3:35 AM 68.0 °F - 67.3 °F 98% 30.16 in 10.0 mi Calm Calm - N/A   Overcast
3:55 AM 68.0 °F - 67.3 °F 98% 30.16 in 10.0 mi Calm Calm - N/A   Overcast
4:15 AM 68.0 °F - 67.3 °F 98% 30.16 in 10.0 mi Calm Calm - N/A   Overcast
4:35 AM 67.8 °F - 67.5 °F 99% 30.16 in 10.0 mi Calm Calm - N/A   Overcast
4:55 AM 67.6 °F - 67.3 °F 99% 30.16 in 10.0 mi Calm Calm - N/A   Overcast
5:15 AM 67.8 °F - 67.3 °F 98% 30.16 in 10.0 mi Calm Calm - N/A   Overcast
5:35 AM 67.6 °F - 67.1 °F 98% 30.15 in 10.0 mi North 3.5 mph - N/A   Overcast
5:55 AM 67.5 °F - 67.1 °F 99% 30.16 in 10.0 mi Calm Calm - N/A   Overcast
6:15 AM 67.3 °F - 66.7 °F 98% 30.16 in 10.0 mi Calm Calm - N/A   Overcast
6:35 AM 67.3 °F - 66.4 °F 97% 30.16 in 10.0 mi Calm Calm - N/A   Overcast
6:55 AM 67.3 °F - 66.2 °F 96% 30.17 in 10.0 mi Calm Calm - N/A   Overcast
7:15 AM 67.5 °F - 66.6 °F 97% 30.17 in 10.0 mi Calm Calm - N/A   Overcast
7:35 AM 68.0 °F - 66.7 °F 96% 30.17 in 10.0 mi Calm Calm - N/A   Overcast
7:55 AM 68.4 °F - 66.7 °F 95% 30.17 in 10.0 mi Calm Calm - N/A   Overcast
8:15 AM 69.3 °F - 66.6 °F 91% 30.17 in 10.0 mi Calm Calm - N/A   Overcast
8:35 AM 70.5 °F - 66.4 °F 87% 30.17 in 10.0 mi Calm Calm - N/A   Overcast
8:55 AM 71.6 °F - 66.7 °F 85% 30.17 in 10.0 mi Calm Calm - N/A   Overcast
9:15 AM 72.5 °F - 65.8 °F 80% 30.17 in 10.0 mi Calm Calm - N/A   Overcast
9:35 AM 72.3 °F - 66.2 °F 81% 30.18 in 10.0 mi North 3.5 mph - N/A   Overcast
9:55 AM 72.3 °F - 67.3 °F 84% 30.18 in 10.0 mi NNE 3.5 mph - N/A   Overcast
10:15 AM 72.9 °F - 66.7 °F 81% 30.18 in 10.0 mi Calm Calm - N/A   Overcast
10:35 AM 74.5 °F - 67.1 °F 78% 30.18 in 10.0 mi Calm Calm - N/A   Overcast
10:55 AM 74.7 °F - 67.1 °F 77% 30.18 in 10.0 mi Calm Calm - N/A   Overcast
11:15 AM 75.4 °F - 67.3 °F 76% 30.17 in 10.0 mi North 3.5 mph - N/A   Overcast
11:35 AM 75.9 °F - 66.2 °F 72% 30.17 in 10.0 mi Calm Calm - N/A   Overcast
11:55 AM 75.7 °F - 66.4 °F 73% 30.17 in 10.0 mi Calm Calm - N/A   Overcast
12:15 PM 76.6 °F - 66.2 °F 70% 30.17 in 10.0 mi Calm Calm - N/A   Overcast
12:35 PM 76.6 °F - 66.4 °F 70% 30.16 in 10.0 mi Calm Calm - N/A   Overcast
12:55 PM 77.4 °F - 66.0 °F 68% 30.16 in 10.0 mi Calm Calm - N/A   Overcast
1:15 PM 78.1 °F - 66.4 °F 67% 30.15 in 10.0 mi Calm Calm - N/A   Overcast
1:35 PM 78.6 °F - 67.3 °F 68% 30.14 in 10.0 mi Calm Calm - N/A   Overcast
1:55 PM 80.2 °F 82.2 °F 65.8 °F 61% 30.14 in 10.0 mi SSE 4.6 mph - N/A   Mostly Cloudy
2:15 PM 80.4 °F 82.4 °F 66.0 °F 61% 30.13 in 10.0 mi ESE 3.5 mph - N/A   Scattered Clouds
2:35 PM 79.9 °F - 66.2 °F 63% 30.12 in 10.0 mi SSW 3.5 mph - N/A   Mostly Cloudy
2:55 PM 79.7 °F - 66.6 °F 64% 30.12 in 10.0 mi Calm Calm - N/A   Overcast
3:15 PM 77.2 °F - 69.8 °F 78% 30.12 in 10.0 mi NW 6.9 mph - N/A Rain Rain
3:35 PM 74.5 °F - 70.3 °F 87% 30.12 in 10.0 mi NNW 4.6 mph - 0.01 in   Overcast
3:55 PM 75.4 °F - 70.3 °F 84% 30.11 in 10.0 mi Calm Calm - 0.01 in   Overcast
4:15 PM 75.9 °F - 70.5 °F 83% 30.11 in 10.0 mi WNW 3.5 mph - N/A   Overcast
4:35 PM 75.9 °F - 69.4 °F 80% 30.11 in 10.0 mi Calm Calm - N/A   Overcast
4:55 PM 76.8 °F - 70.2 °F 80% 30.11 in 10.0 mi NW 3.5 mph - N/A   Overcast
5:15 PM 76.1 °F - 69.6 °F 80% 30.11 in 10.0 mi Calm Calm - N/A   Mostly Cloudy
5:35 PM 76.3 °F - 69.3 °F 79% 30.10 in 10.0 mi WNW 5.8 mph - N/A   Mostly Cloudy
5:55 PM 77.0 °F - 69.4 °F 77% 30.10 in 10.0 mi West 3.5 mph - N/A   Mostly Cloudy
6:15 PM 77.4 °F - 67.3 °F 71% 30.10 in 10.0 mi WNW 4.6 mph - N/A   Scattered Clouds
6:35 PM 76.3 °F - 68.7 °F 77% 30.10 in 10.0 mi Calm Calm - N/A   Clear
6:55 PM 74.7 °F - 69.4 °F 84% 30.11 in 10.0 mi WNW 3.5 mph - N/A   Clear
7:15 PM 72.5 °F - 69.3 °F 90% 30.11 in 10.0 mi Calm Calm - N/A   Clear
7:35 PM 71.2 °F - 68.7 °F 92% 30.12 in 10.0 mi WNW 3.5 mph - N/A   Clear
7:55 PM 70.7 °F - 68.4 °F 92% 30.12 in 10.0 mi Calm Calm - N/A   Scattered Clouds
8:15 PM 70.2 °F - 68.0 °F 93% 30.13 in 10.0 mi Calm Calm - N/A   Mostly Cloudy
8:35 PM 69.8 °F - 67.6 °F 93% 30.13 in 10.0 mi Calm Calm - N/A   Mostly Cloudy
8:55 PM 69.3 °F - 67.3 °F 93% 30.14 in 10.0 mi Calm Calm - N/A   Scattered Clouds
9:15 PM 68.9 °F - 67.5 °F 95% 30.14 in 10.0 mi Calm Calm - N/A   Clear
9:35 PM 68.4 °F - 66.6 °F 94% 30.15 in 10.0 mi Calm Calm - N/A   Scattered Clouds
9:55 PM 68.0 °F - 66.6 °F 95% 30.14 in 10.0 mi Calm Calm - N/A   Scattered Clouds
10:15 PM 67.5 °F - 65.8 °F 95% 30.15 in 10.0 mi Calm Calm - N/A   Clear
10:35 PM 67.5 °F - 65.8 °F 95% 30.15 in 10.0 mi Calm Calm - N/A   Scattered Clouds
10:55 PM 67.3 °F - 65.8 °F 95% 30.15 in 10.0 mi Calm Calm - N/A   Mostly Cloudy
11:15 PM 67.1 °F - 65.5 °F 95% 30.15 in 10.0 mi Calm Calm - N/A   Mostly Cloudy
11:35 PM 67.1 °F - 65.5 °F 95% 30.15 in 10.0 mi Calm Calm - N/A   Overcast
11:55 PM 67.1 °F - 65.5 °F 95% 30.15 in 10.0 mi Calm Calm - N/A   Overcast